Location: Rounton
(54.4000°N, 1.3500°W)
Time: 02:27:01
(UTC+01:00)

COSMOS 2251 DEB - Visible Passes

Search period start: 01 July 2022 00:00
Search period end: 11 July 2022 00:00
Orbit: 738 x 847 km, 74.1° (Epoch: 30 June)

Date Brightness Start Highest point End Pass type
(mag) Time Alt. Az. Time Alt. Az. Time Alt. Az.
01 Jul ? 02:16:52 10° N 02:18:01 11° NNE 02:19:10 10° NNE visible
02 Jul ? 00:01:52 10° NNW 00:02:27 10° NNW 00:03:03 10° N visible
02 Jul ? 03:28:40 10° N 03:32:41 21° NE 03:36:37 10° E visible
02 Jul ? 23:30:36 10° NW 23:32:19 11° NNW 23:34:02 10° N visible
03 Jul ? 02:59:10 10° N 03:02:42 18° NE 03:06:11 10° ENE visible
03 Jul ? 22:59:44 10° NW 23:02:12 13° NNW 23:04:40 10° N visible
04 Jul ? 02:29:40 10° N 02:32:40 15° NNE 02:35:36 10° ENE visible
05 Jul ? 02:00:15 10° N 02:02:35 13° NNE 02:04:54 10° NE visible
05 Jul ? 03:42:00 10° NNW 03:46:50 37° NE 03:51:32 10° ESE visible
06 Jul ? 01:30:57 10° N 01:32:28 11° NNE 01:33:59 10° NE visible
06 Jul ? 03:12:25 10° NNW 03:16:58 29° NE 03:21:24 10° ESE visible
07 Jul ? 02:42:51 10° NNW 02:47:02 24° NE 02:51:07 10° E visible
07 Jul ? 22:45:46 10° NNW 22:46:47 10° NNW 22:47:47 10° N visible
08 Jul ? 02:13:20 10° N 02:17:04 19° NE 02:20:45 10° E visible
09 Jul ? 01:43:50 10° N 01:47:03 16° NNE 01:50:14 10° ENE visible
09 Jul ? 03:25:48 10° NNW 03:30:53 54° ENE 03:35:52 10° SE visible
10 Jul ? 01:14:22 10° N 01:17:00 14° NNE 01:19:35 10° ENE visible
10 Jul ? 02:56:11 10° NNW 03:01:05 41° NE 03:05:54 10° ESE visible
